Time,TemperatureF,DewpointF,PressureIn,WindDirection,WindDirectionDegrees,WindSpeedMPH,WindSpeedGustMPH,Humidity,HourlyPrecipIn,Conditions,Clouds,dailyrainin,SoftwareType,DateUTC
2013-06-16 00:01:00,68.0,68.0,-100.00,ENE,65,0.0,0.0,99,-99.99,,,-99.99,,2013-06-16 05:01:00,
2013-06-16 00:12:00,68.0,68.0,-100.00,SE,140,0.0,0.0,99,-99.99,,,-99.99,,2013-06-16 05:12:00,
2013-06-16 00:22:00,68.0,68.0,-100.00,SE,140,0.0,0.0,99,-99.99,,,-99.99,,2013-06-16 05:22:00,
2013-06-16 00:34:00,68.0,68.0,-100.00,SE,135,0.0,0.0,99,-99.99,,,-99.99,,2013-06-16 05:34:00,
2013-06-16 00:43:00,68.0,68.0,-100.00,SSE,160,0.0,0.0,99,-99.99,,,-99.99,,2013-06-16 05:43:00,
2013-06-16 00:52:00,68.0,68.0,-100.00,SSE,160,0.0,0.0,99,-99.99,,,-99.99,,2013-06-16 05:52:00,
2013-06-16 01:01:00,68.0,68.0,-100.00,South,185,0.0,0.0,99,-99.99,,,-99.99,,2013-06-16 06:01:00,
2013-06-16 01:11:00,68.0,68.0,-100.00,South,185,0.0,0.0,99,-99.99,,,-99.99,,2013-06-16 06:11:00,
2013-06-16 01:22:00,68.0,68.0,-100.00,South,185,0.0,0.0,99,-99.99,,,-99.99,,2013-06-16 06:22:00,
2013-06-16 01:33:00,68.0,68.0,-100.00,WSW,245,0.0,0.0,99,-99.99,,,-99.99,,2013-06-16 06:33:00,
2013-06-16 01:43:00,68.0,68.0,-100.00,SW,225,0.0,0.0,99,-99.99,,,-99.99,,2013-06-16 06:43:00,
2013-06-16 01:52:00,68.0,68.0,-100.00,SW,225,0.0,0.0,99,-99.99,,,-99.99,,2013-06-16 06:52:00,
2013-06-16 02:01:00,68.0,68.0,-100.00,WSW,240,0.0,0.0,99,-99.99,,,-99.99,,2013-06-16 07:01:00,
2013-06-16 02:11:00,68.0,68.0,-100.00,SW,235,0.0,0.0,99,-99.99,,,-99.99,,2013-06-16 07:11:00,
2013-06-16 02:22:00,68.0,68.0,-100.00,SW,235,0.0,0.0,99,-99.99,,,-99.99,,2013-06-16 07:22:00,
2013-06-16 02:33:00,68.0,68.0,-100.00,SW,230,0.0,0.0,99,-99.99,,,-99.99,,2013-06-16 07:33:00,
2013-06-16 02:43:00,68.0,68.0,-100.00,WSW,240,0.0,0.0,99,-99.99,,,-99.99,,2013-06-16 07:43:00,
2013-06-16 02:53:00,68.0,68.0,-100.00,WSW,240,0.0,0.0,99,-99.99,,,-99.99,,2013-06-16 07:53:00,
2013-06-16 03:02:00,68.0,68.0,-100.00,WSW,245,0.0,0.0,99,-99.99,,,-99.99,,2013-06-16 08:02:00,
2013-06-16 03:12:00,68.0,68.0,-100.00,WSW,240,0.0,0.0,99,-99.99,,,-99.99,,2013-06-16 08:12:00,
2013-06-16 03:22:00,68.0,68.0,-100.00,WSW,240,0.0,0.0,99,-99.99,,,-99.99,,2013-06-16 08:22:00,
2013-06-16 03:33:00,68.0,68.0,-100.00,SW,220,0.0,0.0,99,-99.99,,,-99.99,,2013-06-16 08:33:00,
2013-06-16 03:43:00,68.0,68.0,-100.00,WSW,245,0.0,0.0,99,-99.99,,,-99.99,,2013-06-16 08:43:00,
2013-06-16 03:54:00,68.0,68.0,-100.00,WSW,245,0.0,0.0,99,-99.99,,,-99.99,,2013-06-16 08:54:00,
2013-06-16 04:02:00,68.0,68.0,-100.00,SW,225,0.0,0.0,99,-99.99,,,-99.99,,2013-06-16 09:02:00,
2013-06-16 04:11:00,68.0,68.0,-100.00,SSW,200,0.0,0.0,99,-99.99,,,-99.99,,2013-06-16 09:11:00,
2013-06-16 04:22:00,68.0,68.0,-100.00,SSW,200,0.0,0.0,99,-99.99,,,-99.99,,2013-06-16 09:22:00,
2013-06-16 04:33:00,68.0,68.0,-100.00,WSW,240,0.0,0.0,99,-99.99,,,-99.99,,2013-06-16 09:33:00,
2013-06-16 04:43:00,68.0,68.0,-100.00,WSW,245,0.0,0.0,99,-99.99,,,-99.99,,2013-06-16 09:43:00,
2013-06-16 04:52:00,68.0,68.0,-100.00,WSW,245,0.0,0.0,99,-99.99,,,-99.99,,2013-06-16 09:52:00,
2013-06-16 05:02:00,68.0,68.0,-100.00,SSW,200,0.0,0.0,99,-99.99,,,-99.99,,2013-06-16 10:02:00,
2013-06-16 05:12:00,68.0,68.0,-100.00,SW,230,0.0,0.0,99,-99.99,,,-99.99,,2013-06-16 10:12:00,
2013-06-16 05:22:00,68.0,68.0,-100.00,SW,230,0.0,0.0,99,-99.99,,,-99.99,,2013-06-16 10:22:00,
2013-06-16 05:33:00,68.0,67.0,-100.00,SW,225,0.0,0.0,99,-99.99,,,-99.99,,2013-06-16 10:33:00,
2013-06-16 05:43:00,68.0,68.0,-100.00,SW,230,0.0,0.0,99,-99.99,,,-99.99,,2013-06-16 10:43:00,
2013-06-16 05:54:00,68.0,68.0,-100.00,SW,230,0.0,0.0,99,-99.99,,,-99.99,,2013-06-16 10:54:00,
2013-06-16 06:02:00,68.0,68.0,-100.00,SW,225,0.0,0.0,99,-99.99,,,-99.99,,2013-06-16 11:02:00,
2013-06-16 06:11:00,68.0,68.0,-100.00,SW,225,0.0,0.0,99,-99.99,,,-99.99,,2013-06-16 11:11:00,
2013-06-16 06:22:00,68.0,68.0,-100.00,SW,225,0.0,0.0,99,-99.99,,,-99.99,,2013-06-16 11:22:00,
2013-06-16 06:34:00,68.0,68.0,-100.00,WSW,255,0.0,2.0,99,-99.99,,,-99.99,,2013-06-16 11:34:00,
2013-06-16 06:43:00,68.0,68.0,-100.00,SSW,200,0.0,0.0,99,-99.99,,,-99.99,,2013-06-16 11:43:00,
2013-06-16 06:53:00,68.0,68.0,-100.00,SSW,200,0.0,0.0,99,-99.99,,,-99.99,,2013-06-16 11:53:00,
2013-06-16 07:02:00,68.0,68.0,-100.00,SSW,210,2.0,5.0,99,-99.99,,,-99.99,,2013-06-16 12:02:00,
2013-06-16 07:12:00,68.0,68.0,-100.00,SW,230,0.0,6.0,99,-99.99,,,-99.99,,2013-06-16 12:12:00,
2013-06-16 07:22:00,68.0,68.0,-100.00,SW,230,0.0,6.0,99,-99.99,,,-99.99,,2013-06-16 12:22:00,
2013-06-16 07:32:00,69.0,68.0,-100.00,SSW,200,0.0,0.0,99,-99.99,,,-99.99,,2013-06-16 12:32:00,
2013-06-16 07:42:00,69.0,69.0,-100.00,South,190,0.0,0.0,99,-99.99,,,-99.99,,2013-06-16 12:42:00,
2013-06-16 07:53:00,69.0,69.0,-100.00,South,190,0.0,0.0,99,-99.99,,,-99.99,,2013-06-16 12:53:00,
2013-06-16 08:01:00,69.0,69.0,-100.00,SW,230,0.0,0.0,99,-99.99,,,-99.99,,2013-06-16 13:01:00,
2013-06-16 08:11:00,70.0,69.0,-100.00,SW,220,0.0,0.0,99,-99.99,,,-99.99,,2013-06-16 13:11:00,
2013-06-16 08:22:00,70.0,69.0,-100.00,SW,220,0.0,0.0,99,-99.99,,,-99.99,,2013-06-16 13:22:00,
2013-06-16 08:34:00,70.0,70.0,-100.00,WSW,245,0.0,0.0,99,-99.99,,,-99.99,,2013-06-16 13:34:00,
2013-06-16 08:43:00,71.0,70.0,-100.00,SW,230,0.0,0.0,99,-99.99,,,-99.99,,2013-06-16 13:43:00,
2013-06-16 08:54:00,71.0,70.0,-100.00,SW,230,0.0,0.0,99,-99.99,,,-99.99,,2013-06-16 13:54:00,
2013-06-16 09:02:00,71.0,71.0,-100.00,WSW,240,0.0,0.0,99,-99.99,,,-99.99,,2013-06-16 14:02:00,
2013-06-16 09:12:00,71.0,71.0,-100.00,SW,225,0.0,0.0,99,-99.99,,,-99.99,,2013-06-16 14:12:00,
2013-06-16 09:22:00,71.0,71.0,-100.00,SW,225,0.0,0.0,99,-99.99,,,-99.99,,2013-06-16 14:22:00,
2013-06-16 09:34:00,73.0,72.0,-100.00,SSW,210,0.0,0.0,99,-99.99,,,-99.99,,2013-06-16 14:34:00,
2013-06-16 09:43:00,73.0,73.0,-100.00,WSW,250,0.0,0.0,99,-99.99,,,-99.99,,2013-06-16 14:43:00,
2013-06-16 09:53:00,73.0,73.0,-100.00,WSW,250,0.0,0.0,99,-99.99,,,-99.99,,2013-06-16 14:53:00,
2013-06-16 10:02:00,74.0,74.0,-100.00,West,265,0.0,0.0,99,-99.99,,,-99.99,,2013-06-16 15:02:00,
2013-06-16 10:12:00,75.0,75.0,-100.00,WSW,240,0.0,0.0,99,-99.99,,,-99.99,,2013-06-16 15:12:00,
2013-06-16 10:23:00,75.0,75.0,-100.00,WSW,240,0.0,0.0,99,-99.99,,,-99.99,,2013-06-16 15:23:00,
2013-06-16 10:33:00,77.0,77.0,-100.00,WSW,255,0.0,0.0,99,-99.99,,,-99.99,,2013-06-16 15:33:00,
2013-06-16 10:43:00,79.0,77.0,-100.00,SW,225,0.0,0.0,94,-99.99,,,-99.99,,2013-06-16 15:43:00,
2013-06-16 10:53:00,79.0,77.0,-100.00,SW,225,0.0,0.0,94,-99.99,,,-99.99,,2013-06-16 15:53:00,
2013-06-16 11:02:00,79.0,75.0,-100.00,SW,235,0.0,0.0,87,-99.99,,,-99.99,,2013-06-16 16:02:00,
2013-06-16 11:12:00,79.0,74.0,-100.00,SW,235,0.0,2.0,85,-99.99,,,-99.99,,2013-06-16 16:12:00,
2013-06-16 11:23:00,79.0,74.0,-100.00,SW,235,0.0,2.0,85,-99.99,,,-99.99,,2013-06-16 16:23:00,
2013-06-16 11:33:00,78.0,74.0,-100.00,WSW,250,0.0,0.0,87,-99.99,,,-99.99,,2013-06-16 16:33:00,
2013-06-16 11:43:00,78.0,74.0,-100.00,SW,230,0.0,0.0,89,-99.99,,,-99.99,,2013-06-16 16:43:00,
2013-06-16 11:53:00,78.0,74.0,-100.00,SW,230,0.0,0.0,89,-99.99,,,-99.99,,2013-06-16 16:53:00,
2013-06-16 12:02:00,80.0,76.0,-100.00,SW,220,0.0,0.0,89,-99.99,,,-99.99,,2013-06-16 17:02:00,
2013-06-16 12:12:00,79.0,75.0,-100.00,SW,230,0.0,0.0,86,-99.99,,,-99.99,,2013-06-16 17:12:00,
2013-06-16 12:22:00,79.0,75.0,-100.00,SW,230,0.0,0.0,86,-99.99,,,-99.99,,2013-06-16 17:22:00,
2013-06-16 12:34:00,79.0,75.0,-100.00,SW,215,0.0,0.0,89,-99.99,,,-99.99,,2013-06-16 17:34:00,
2013-06-16 12:43:00,78.0,75.0,-100.00,SW,235,0.0,0.0,89,-99.99,,,-99.99,,2013-06-16 17:43:00,
2013-06-16 12:53:00,78.0,75.0,-100.00,SW,235,0.0,0.0,89,-99.99,,,-99.99,,2013-06-16 17:53:00,
2013-06-16 13:02:00,78.0,74.0,-100.00,WSW,250,0.0,0.0,90,-99.99,,,-99.99,,2013-06-16 18:02:00,
2013-06-16 13:12:00,79.0,75.0,-100.00,SSW,205,0.0,0.0,88,-99.99,,,-99.99,,2013-06-16 18:12:00,
2013-06-16 13:22:00,79.0,75.0,-100.00,SSW,205,0.0,0.0,88,-99.99,,,-99.99,,2013-06-16 18:22:00,
2013-06-16 13:33:00,81.0,76.0,-100.00,SW,230,0.0,0.0,85,-99.99,,,-99.99,,2013-06-16 18:33:00,
2013-06-16 13:43:00,82.0,75.0,-100.00,WSW,255,0.0,0.0,79,-99.99,,,-99.99,,2013-06-16 18:43:00,
2013-06-16 13:52:00,82.0,75.0,-100.00,WSW,255,0.0,0.0,79,-99.99,,,-99.99,,2013-06-16 18:52:00,
2013-06-16 14:01:00,83.0,75.0,-100.00,West,265,0.0,0.0,77,-99.99,,,-99.99,,2013-06-16 19:01:00,
2013-06-16 14:11:00,84.0,75.0,-100.00,WSW,250,0.0,0.0,74,-99.99,,,-99.99,,2013-06-16 19:11:00,
2013-06-16 14:22:00,84.0,75.0,-100.00,WSW,250,0.0,0.0,74,-99.99,,,-99.99,,2013-06-16 19:22:00,
2013-06-16 14:34:00,84.0,75.0,-100.00,WSW,250,0.0,0.0,73,-99.99,,,-99.99,,2013-06-16 19:34:00,
2013-06-16 14:43:00,83.0,74.0,-100.00,WSW,250,0.0,0.0,74,-99.99,,,-99.99,,2013-06-16 19:43:00,
2013-06-16 14:53:00,83.0,74.0,-100.00,WSW,250,0.0,0.0,74,-99.99,,,-99.99,,2013-06-16 19:53:00,
2013-06-16 15:02:00,84.0,75.0,-100.00,WSW,245,0.0,0.0,74,-99.99,,,-99.99,,2013-06-16 20:02:00,
2013-06-16 15:11:00,85.0,75.0,-100.00,SW,225,0.0,0.0,73,-99.99,,,-99.99,,2013-06-16 20:11:00,
2013-06-16 15:22:00,85.0,75.0,-100.00,SW,225,0.0,0.0,73,-99.99,,,-99.99,,2013-06-16 20:22:00,
2013-06-16 15:33:00,83.0,74.0,-100.00,WSW,250,0.0,0.0,76,-99.99,,,-99.99,,2013-06-16 20:33:00,
2013-06-16 15:42:00,83.0,75.0,-100.00,WSW,250,0.0,0.0,78,-99.99,,,-99.99,,2013-06-16 20:42:00,
2013-06-16 15:53:00,83.0,75.0,-100.00,WSW,250,0.0,0.0,78,-99.99,,,-99.99,,2013-06-16 20:53:00,
2013-06-16 16:02:00,84.0,75.0,-100.00,WSW,255,0.0,0.0,76,-99.99,,,-99.99,,2013-06-16 21:02:00,
2013-06-16 16:11:00,84.0,76.0,-100.00,West,270,0.0,0.0,78,-99.99,,,-99.99,,2013-06-16 21:11:00,
2013-06-16 16:22:00,84.0,76.0,-100.00,West,270,0.0,0.0,78,-99.99,,,-99.99,,2013-06-16 21:22:00,
2013-06-16 16:32:00,84.0,76.0,-100.00,WSW,255,0.0,0.0,78,-99.99,,,-99.99,,2013-06-16 21:32:00,
2013-06-16 16:42:00,84.0,76.0,-100.00,WSW,255,0.0,0.0,77,-99.99,,,-99.99,,2013-06-16 21:42:00,
2013-06-16 16:53:00,84.0,76.0,-100.00,WSW,255,0.0,0.0,77,-99.99,,,-99.99,,2013-06-16 21:53:00,
2013-06-16 17:01:00,83.0,76.0,-100.00,West,265,0.0,0.0,78,-99.99,,,-99.99,,2013-06-16 22:01:00,
2013-06-16 17:12:00,83.0,76.0,-100.00,SW,235,0.0,1.0,81,-99.99,,,-99.99,,2013-06-16 22:12:00,
2013-06-16 17:22:00,83.0,76.0,-100.00,SW,235,0.0,1.0,81,-99.99,,,-99.99,,2013-06-16 22:22:00,
2013-06-16 17:32:00,82.0,76.0,-100.00,WSW,245,0.0,0.0,82,-99.99,,,-99.99,,2013-06-16 22:32:00,
2013-06-16 17:42:00,81.0,76.0,-100.00,WSW,250,0.0,3.0,83,-99.99,,,-99.99,,2013-06-16 22:42:00,
2013-06-16 17:52:00,81.0,76.0,-100.00,WSW,250,0.0,3.0,83,-99.99,,,-99.99,,2013-06-16 22:52:00,
2013-06-16 18:01:00,82.0,77.0,-100.00,WSW,255,0.0,1.0,85,-99.99,,,-99.99,,2013-06-16 23:01:00,
2013-06-16 18:11:00,81.0,77.0,-100.00,WSW,245,0.0,0.0,85,-99.99,,,-99.99,,2013-06-16 23:11:00,
2013-06-16 18:22:00,81.0,77.0,-100.00,WSW,245,0.0,0.0,85,-99.99,,,-99.99,,2013-06-16 23:22:00,
2013-06-16 18:32:00,81.0,76.0,-100.00,West,260,0.0,0.0,87,-99.99,,,-99.99,,2013-06-16 23:32:00,
2013-06-16 18:42:00,80.0,77.0,-100.00,WSW,255,0.0,0.0,88,-99.99,,,-99.99,,2013-06-16 23:42:00,
2013-06-16 18:52:00,80.0,77.0,-100.00,WSW,255,0.0,0.0,88,-99.99,,,-99.99,,2013-06-16 23:52:00,
2013-06-16 19:02:00,80.0,77.0,-100.00,WSW,255,0.0,0.0,89,-99.99,,,-99.99,,2013-06-17 00:02:00,
2013-06-16 19:11:00,81.0,77.0,-100.00,NNE,15,0.0,0.0,89,-99.99,,,-99.99,,2013-06-17 00:11:00,
2013-06-16 19:22:00,81.0,77.0,-100.00,NNE,15,0.0,0.0,89,-99.99,,,-99.99,,2013-06-17 00:22:00,
2013-06-16 19:32:00,81.0,77.0,-100.00,NNE,15,0.0,0.0,89,-99.99,,,-99.99,,2013-06-17 00:32:00,
2013-06-16 19:43:00,81.0,77.0,-100.00,WSW,250,0.0,3.0,87,-99.99,,,-99.99,,2013-06-17 00:43:00,
2013-06-16 19:52:00,81.0,77.0,-100.00,WSW,250,0.0,3.0,87,-99.99,,,-99.99,,2013-06-17 00:52:00,
2013-06-16 20:02:00,80.0,76.0,-100.00,WSW,245,0.0,2.0,87,-99.99,,,-99.99,,2013-06-17 01:02:00,
2013-06-16 20:12:00,80.0,76.0,-100.00,SW,235,0.0,0.0,88,-99.99,,,-99.99,,2013-06-17 01:12:00,
2013-06-16 20:22:00,80.0,76.0,-100.00,SW,235,0.0,0.0,88,-99.99,,,-99.99,,2013-06-17 01:22:00,
2013-06-16 20:32:00,79.0,76.0,-100.00,SW,230,0.0,0.0,89,-99.99,,,-99.99,,2013-06-17 01:32:00,
2013-06-16 20:43:00,79.0,75.0,-100.00,SSW,195,0.0,0.0,89,-99.99,,,-99.99,,2013-06-17 01:43:00,
2013-06-16 20:53:00,79.0,75.0,-100.00,SSW,195,0.0,0.0,89,-99.99,,,-99.99,,2013-06-17 01:53:00,
2013-06-16 21:02:00,78.0,76.0,-100.00,South,175,0.0,0.0,92,-99.99,,,-99.99,,2013-06-17 02:02:00,
2013-06-16 21:12:00,78.0,76.0,-100.00,SSW,195,0.0,0.0,96,-99.99,,,-99.99,,2013-06-17 02:12:00,
2013-06-16 21:22:00,78.0,76.0,-100.00,SSW,195,0.0,0.0,96,-99.99,,,-99.99,,2013-06-17 02:22:00,
2013-06-16 21:34:00,77.0,76.0,-100.00,South,180,0.0,0.0,98,-99.99,,,-99.99,,2013-06-17 02:34:00,
2013-06-16 21:43:00,76.0,75.0,-100.00,South,185,0.0,0.0,99,-99.99,,,-99.99,,2013-06-17 02:43:00,
2013-06-16 21:53:00,76.0,75.0,-100.00,South,185,0.0,0.0,99,-99.99,,,-99.99,,2013-06-17 02:53:00,
2013-06-16 22:02:00,75.0,75.0,-100.00,SW,225,0.0,0.0,99,-99.99,,,-99.99,,2013-06-17 03:02:00,
2013-06-16 22:12:00,75.0,75.0,-100.00,SW,230,0.0,0.0,99,-99.99,,,-99.99,,2013-06-17 03:12:00,
2013-06-16 22:22:00,75.0,75.0,-100.00,SW,230,0.0,0.0,99,-99.99,,,-99.99,,2013-06-17 03:22:00,
2013-06-16 22:33:00,74.0,74.0,-100.00,South,190,0.0,0.0,99,-99.99,,,-99.99,,2013-06-17 03:33:00,
2013-06-16 22:44:00,74.0,74.0,-100.00,South,190,0.0,0.0,99,-99.99,,,-99.99,,2013-06-17 03:44:00,
2013-06-16 22:54:00,74.0,74.0,-100.00,South,190,0.0,0.0,99,-99.99,,,-99.99,,2013-06-17 03:54:00,
2013-06-16 23:02:00,74.0,74.0,-100.00,SSE,155,0.0,0.0,99,-99.99,,,-99.99,,2013-06-17 04:02:00,
2013-06-16 23:12:00,74.0,74.0,-100.00,SSE,165,0.0,0.0,99,-99.99,,,-99.99,,2013-06-17 04:12:00,
2013-06-16 23:22:00,74.0,74.0,-100.00,SSE,165,0.0,0.0,99,-99.99,,,-99.99,,2013-06-17 04:22:00,
2013-06-16 23:34:00,74.0,74.0,-100.00,North,0,0.0,0.0,99,-99.99,,,-99.99,,2013-06-17 04:34:00,
2013-06-16 23:43:00,74.0,73.0,-100.00,North,355,0.0,0.0,99,-99.99,,,-99.99,,2013-06-17 04:43:00,
2013-06-16 23:53:00,74.0,73.0,-100.00,North,355,0.0,0.0,99,-99.99,,,-99.99,,2013-06-17 04:53:00,